FW2402 Weather Reports


time (UTC)temp
C
wind
direction
speed
KPH
gust
KPH
rain 1hr
cm
rain 24hr
cm
rain mn
cm
humidity
%
barometer
mb
20260901231024 24 0 0.0 0.0 0.36 0.36 0.36 95 1015.4
20260901230525 24 0 0.0 0.0 0.36 0.36 0.36 95 1015.4
20260901230103 24 0 0.0 0.0 0.36 0.36 0.36 94 1015.4
20260901225528 24 0 0.0 3.2 0.33 0.33 0.33 94 1015.3
20260901225025 24 0 0.0 3.2 0.33 0.33 0.33 94 1015.3
20260901224542 24 311 0.0 3.2 0.33 0.33 0.33 93 1015.3
20260901224026 24 0 0.0 6.4 0.30 0.30 0.30 93 1015.5
20260901223523 24 0 0.0 14.5 0.30 0.30 0.30 92 1015.5
20260901223055 25 76 4.8 20.9 0.30 0.30 0.30 91 1015.4
20260901222526 25 103 9.7 25.7 0.25 0.25 0.25 90 1015.5
20260901222028 26 75 12.9 25.7 0.08 0.08 0.08 88 1015.6
20260901221547 27 44 11.3 22.5 0.03 0.03 0.03 83 1015.6
20260901221024 28 79 4.8 11.3 0.00 0.00 0.00 83 1015.3
20260901220529 28 71 1.6 11.3 0.00 0.00 0.00 83 1015.1
20260901220109 28 64 6.4 16.1 0.00 0.00 0.00 82 1014.9
20260901215523 28 77 6.4 16.1 0.00 0.23 0.00 82 1014.9
20260901215025 28 81 6.4 12.9 0.00 0.23 0.00 80 1014.9
20260901214540 29 84 6.4 12.9 0.00 0.23 0.00 79 1014.7
20260901214024 30 82 6.4 16.1 0.00 0.23 0.00 78 1014.6
20260901213524 30 67 9.7 16.1 0.00 0.23 0.00 78 1014.5
20260901213112 30 34 8.0 14.5 0.00 0.23 0.00 77 1014.4
20260901212524 29 81 9.7 17.7 0.00 0.23 0.00 79 1014.4
20260901212025 30 92 9.7 17.7 0.00 0.23 0.00 76 1014.4
20260901211544 30 34 6.4 12.9 0.00 0.23 0.00 76 1014.6
20260901211024 30 44 3.2 16.1 0.00 0.23 0.00 77 1014.8
20260901210524 31 15 6.4 16.1 0.00 0.23 0.00 76 1014.8
20260901210048 30 66 9.7 16.1 0.00 0.23 0.00 74 1014.7
20260901205526 30 65 3.2 19.3 0.00 0.38 0.00 75 1014.8
20260901205025 30 35 6.4 19.3 0.00 0.38 0.00 76 1015.0
20260901204547 30 16 9.7 19.3 0.00 0.38 0.00 76 1014.9
20260901204023 30 88 6.4 19.3 0.00 0.38 0.00 77 1014.8
20260901203525 30 45 8.0 16.1 0.00 0.38 0.00 76 1014.7
20260901203058 30 38 4.8 22.5 0.00 0.38 0.00 77 1014.6
20260901202523 30 57 11.3 22.5 0.00 0.38 0.00 77 1014.6
20260901202027 29 74 9.7 17.7 0.00 0.38 0.00 78 1014.7
20260901201542 29 82 8.0 17.7 0.00 0.38 0.00 75 1014.9
20260901201026 30 74 4.8 14.5 0.00 0.38 0.00 74 1015.0
20260901200525 30 84 4.8 14.5 0.00 0.38 0.00 76 1015.0
20260901200048 30 90 6.4 12.9 0.00 0.38 0.00 78 1014.9
20260901195524 29 115 3.2 12.9 0.00 0.38 0.00 82 1015.1
20260901195023 29 70 6.4 12.9 0.00 0.38 0.00 79 1015.2
20260901194549 29 82 4.8 14.5 0.00 0.38 0.00 80 1015.3
20260901194025 29 49 8.0 19.3 0.00 0.38 0.00 79 1015.1
20260901193524 30 40 8.0 20.9 0.00 0.38 0.00 79 1015.1
20260901193051 30 56 12.9 25.7 0.00 0.38 0.00 75 1015.1
20260901192524 30 70 11.3 25.7 0.00 0.38 0.00 76 1015.1
20260901192025 30 86 8.0 25.7 0.00 0.38 0.00 76 1015.3
20260901191547 30 56 9.7 25.7 0.00 0.38 0.00 77 1015.3
20260901191025 29 60 14.5 25.7 0.00 0.38 0.00 77 1015.2
20260901190524 31 67 14.5 25.7 0.00 0.38 0.00 74 1015.3
20260901190044 30 120 3.2 12.9 0.00 0.38 0.00 78 1015.2
20260901185526 30 0 1.6 6.4 0.00 0.38 0.00 78 1015.2
20260901185024 30 286 0.0 6.4 0.00 0.38 0.00 84 1015.4
20260901184540 30 290 1.6 6.4 0.00 0.38 0.00 80 1015.5
20260901184025 30 271 1.6 6.4 0.00 0.38 0.00 81 1015.4
20260901183525 29 264 0.0 4.8 0.00 0.38 0.00 83 1015.5
20260901183055 28 280 1.6 9.7 0.00 0.38 0.00 83 1015.5
20260901182524 28 286 1.6 14.5 0.00 0.38 0.00 83 1015.6
20260901182025 28 258 4.8 14.5 0.00 0.38 0.00 84 1015.8
20260901181547 27 277 8.0 14.5 0.00 0.38 0.00 86 1015.7
20260901181023 27 279 8.0 16.1 0.00 0.38 0.00 89 1015.8
20260901180527 26 290 8.0 16.1 0.00 0.38 0.00 88 1015.8
20260901180043 26 276 4.8 17.7 0.00 0.38 0.00 86 1016.0
20260901175521 27 266 8.0 17.7 0.00 0.38 0.00 81 1016.1
20260901175025 28 279 6.4 14.5 0.00 0.38 0.00 81 1016.2
20260901174542 29 284 1.6 9.7 0.00 0.38 0.00 80 1016.2
20260901174025 29 308 1.6 16.1 0.00 0.38 0.00 79 1016.3
20260901173524 31 5 6.4 16.1 0.00 0.38 0.00 74 1016.3
20260901173057 32 0 1.6 16.1 0.00 0.38 0.00 72 1016.2
20260901172524 32 251 6.4 16.1 0.00 0.38 0.00 74 1016.3
20260901172025 31 69 4.8 9.7 0.00 0.38 0.00 72 1016.2
20260901171548 31 61 0.0 9.7 0.00 0.38 0.00 75 1016.3
20260901171026 31 86 1.6 11.3 0.00 0.38 0.00 74 1016.2
20260901170523 31 48 3.2 11.3 0.00 0.38 0.00 74 1016.2
20260901170048 30 0 0.0 6.4 0.00 0.38 0.00 79 1016.3
20260901165526 31 256 1.6 6.4 0.00 0.38 0.00 77 1016.4
20260901165025 30 0 0.0 6.4 0.00 0.38 0.00 79 1016.4
20260901164550 30 0 1.6 6.4 0.00 0.38 0.00 79 1016.5
20260901164028 30 29 1.6 11.3 0.00 0.38 0.00 79 1016.5
20260901163524 31 48 4.8 11.3 0.00 0.38 0.00 74 1016.6
20260901163043 31 55 4.8 9.7 0.00 0.38 0.00 78 1016.6
20260901162524 30 0 0.0 9.7 0.00 0.38 0.00 79 1016.6
20260901162023 30 275 1.6 6.4 0.00 0.38 0.00 75 1016.7
20260901161542 30 0 0.0 6.4 0.00 0.38 0.00 78 1016.7
20260901161024 30 5 1.6 6.4 0.00 0.38 0.00 78 1016.8
20260901160525 30 0 0.0 8.0 0.00 0.38 0.00 82 1016.8
20260901160048 30 0 0.0 8.0 0.00 0.38 0.00 81 1016.8
20260901155524 30 91 4.8 12.9 0.00 0.38 0.00 78 1016.9
20260901155026 30 36 4.8 12.9 0.00 0.38 0.00 80 1017.0
20260901154541 30 91 4.8 12.9 0.00 0.38 0.00 78 1017.0
20260901154025 30 63 4.8 12.9 0.00 0.38 0.00 83 1017.0
20260901153525 29 41 3.2 9.7 0.00 0.38 0.00 86 1017.0
20260901153049 28 40 1.6 9.7 0.00 0.38 0.00 84 1016.9
20260901152525 28 55 1.6 6.4 0.00 0.38 0.00 85 1017.0
20260901152027 28 289 1.6 11.3 0.00 0.38 0.00 82 1017.0
20260901151547 29 0 3.2 11.3 0.00 0.38 0.00 86 1017.0
20260901151026 28 265 3.2 9.7 0.00 0.38 0.00 86 1017.1
20260901150525 29 53 1.6 9.7 0.00 0.38 0.00 87 1017.0
20260901150043 29 80 3.2 8.0 0.00 0.38 0.00 85 1017.0
20260901145523 29 360 3.2 8.0 0.00 0.38 0.00 86 1017.0
20260901145026 28 51 4.8 8.0 0.00 0.38 0.00 87 1017.0
20260901144541 27 24 3.2 8.0 0.00 0.38 0.00 89 1017.0
20260901144025 28 0 0.0 8.0 0.00 0.38 0.00 88 1017.0
20260901143526 28 216 1.6 8.0 0.00 0.38 0.00 87 1016.8
20260901143050 28 74 1.6 6.4 0.00 0.38 0.00 90 1016.8
20260901142525 28 59 3.2 8.0 0.00 0.38 0.00 91 1016.7
20260901142022 28 65 3.2 11.3 0.00 0.38 0.00 91 1016.5
20260901141545 27 39 6.4 12.9 0.00 0.38 0.00 93 1016.6
20260901141030 27 51 6.4 12.9 0.00 0.38 0.00 95 1016.5
20260901140522 26 36 4.8 9.7 0.00 0.38 0.00 96 1016.6
20260901140052 26 73 3.2 6.4 0.00 0.38 0.00 97 1016.7
20260901135522 26 43 3.2 6.4 0.00 0.38 0.00 97 1016.7
20260901135023 26 35 1.6 11.3 0.00 0.38 0.00 97 1016.7
20260901134557 26 36 4.8 11.3 0.00 0.38 0.00 97 1016.6
20260901134020 26 31 4.8 11.3 0.00 0.38 0.00 97 1016.6
20260901133518 25 43 3.2 8.0 0.00 0.38 0.00 97 1016.7
20260901133046 25 51 0.0 4.8 0.00 0.38 0.00 97 1016.7
20260901132524 25 0 0.0 1.6 0.00 0.38 0.00 97 1016.6
20260901132024 25 0 0.0 4.8 0.00 0.38 0.00 97 1016.6
20260901131545 25 0 0.0 4.8 0.00 0.38 0.00 97 1016.7
20260901131023 25 0 0.0 3.2 0.00 0.38 0.00 97 1016.6
20260901130523 25 0 0.0 4.8 0.00 0.38 0.00 97 1016.7
20260901130045 25 0 0.0 4.8 0.00 0.38 0.00 97 1016.6
20260901125520 25 58 1.6 4.8 0.00 0.38 0.00 97 1016.6
20260901125021 25 0 0.0 3.2 0.00 0.38 0.00 97 1016.6
20260901124543 25 286 0.0 3.2 0.00 0.38 0.00 97 1016.6
20260901124024 25 0 0.0 3.2 0.00 0.38 0.00 97 1016.5
20260901123520 25 51 0.0 1.6 0.00 0.38 0.00 97 1016.4
20260901123038 25 0 0.0 4.8 0.00 0.38 0.00 97 1016.4
20260901122521 25 0 0.0 4.8 0.00 0.38 0.00 97 1016.3
20260901122024 25 0 0.0 4.8 0.00 0.38 0.00 97 1016.3
20260901121542 25 0 0.0 3.2 0.00 0.38 0.00 97 1016.3
20260901121021 25 0 0.0 3.2 0.00 0.38 0.00 97 1016.2
20260901120520 25 0 0.0 3.2 0.00 0.38 0.00 97 1016.2
20260901120052 25 0 0.0 3.2 0.00 0.38 0.00 97 1016.3
20260901115518 25 0 0.0 0.0 0.00 0.38 0.00 97 1016.3
20260901115023 25 0 0.0 0.0 0.00 0.38 0.00 97 1016.2
20260901114540 24 0 0.0 0.0 0.00 0.38 0.00 97 1016.0
20260901114024 24 0 0.0 0.0 0.00 0.38 0.00 97 1016.0
20260901113526 24 0 0.0 0.0 0.00 0.38 0.00 97 1016.0
20260901113048 24 0 0.0 0.0 0.00 0.38 0.00 97 1016.0
20260901112522 24 0 0.0 0.0 0.00 0.38 0.00 97 1015.9
20260901112024 24 0 0.0 0.0 0.00 0.38 0.00 97 1015.9
20260901111550 24 0 0.0 3.2 0.00 0.38 0.00 97 1015.8
20260901111019 24 0 0.0 3.2 0.00 0.38 0.00 97 1015.6
20260901110520 24 0 0.0 6.4 0.00 0.38 0.00 97 1015.5
20260901110046 24 53 3.2 6.4 0.00 0.38 0.00 97 1015.4
20260901105523 24 38 0.0 3.2 0.00 0.38 0.00 97 1015.5
20260901105027 24 0 0.0 4.8 0.00 0.38 0.00 97 1015.5
20260901104544 24 0 0.0 4.8 0.00 0.38 0.00 97 1015.3
20260901104024 24 0 0.0 3.2 0.00 0.38 0.00 97 1015.4
20260901103525 24 0 0.0 0.0 0.00 0.38 0.00 97 1015.4
20260901103042 24 0 0.0 0.0 0.00 0.38 0.00 97 1015.3
20260901102521 24 0 0.0 3.2 0.00 0.38 0.00 97 1015.3
20260901102018 24 0 0.0 3.2 0.00 0.38 0.00 97 1015.2
20260901101540 24 0 0.0 3.2 0.00 0.38 0.00 97 1015.1
20260901101020 24 0 0.0 1.6 0.00 0.38 0.00 97 1015.2
20260901100518 24 0 0.0 3.2 0.00 0.38 0.00 97 1015.2
20260901100042 24 0 0.0 3.2 0.00 0.38 0.00 97 1015.1
20260901095523 24 0 0.0 3.2 0.00 0.38 0.00 97 1015.2
20260901095024 24 0 0.0 3.2 0.00 0.38 0.00 97 1015.1
20260901094544 24 0 0.0 6.4 0.00 0.38 0.00 97 1015.0
20260901094022 24 29 0.0 6.4 0.00 0.38 0.00 97 1015.1
20260901093527 24 44 0.0 6.4 0.00 0.38 0.00 97 1015.0
20260901093043 24 17 1.6 4.8 0.00 0.38 0.00 97 1014.9
20260901092518 24 38 0.0 3.2 0.00 0.38 0.00 97 1014.8
20260901092018 24 0 0.0 1.6 0.00 0.38 0.00 97 1014.7
20260901091541 23 0 0.0 1.6 0.00 0.38 0.00 97 1014.8
20260901091019 23 0 0.0 1.6 0.00 0.38 0.00 97 1014.8
20260901090519 23 0 0.0 1.6 0.00 0.38 0.00 97 1014.9
20260901090043 23 0 0.0 1.6 0.00 0.38 0.00 97 1014.9
20260901085525 23 0 0.0 1.6 0.00 0.38 0.00 97 1014.9
20260901085024 23 0 0.0 3.2 0.00 0.38 0.00 97 1014.9
20260901084542 23 0 0.0 3.2 0.00 0.38 0.00 97 1014.9
20260901084024 23 0 0.0 1.6 0.00 0.38 0.00 97 1014.9
20260901083519 23 0 0.0 0.0 0.00 0.38 0.00 97 1014.9
20260901083042 23 0 0.0 0.0 0.00 0.38 0.00 97 1014.8
20260901082518 23 0 0.0 1.6 0.00 0.38 0.00 97 1014.8
20260901082101 23 0 0.0 1.6 0.00 0.38 0.00 97 1014.8
20260901081540 23 0 0.0 1.6 0.00 0.38 0.00 97 1014.9
20260901081025 23 0 0.0 0.0 0.00 0.38 0.00 97 1014.8
20260901080525 23 0 0.0 0.0 0.00 0.38 0.00 97 1014.7
20260901080045 23 0 0.0 0.0 0.00 0.38 0.00 97 1014.8
20260901075525 23 0 0.0 0.0 0.00 0.38 0.00 97 1014.9
20260901075024 22 0 0.0 0.0 0.00 0.38 0.00 97 1014.9
20260901074541 22 0 0.0 0.0 0.00 0.38 0.00 97 1014.9
20260901074024 22 0 0.0 0.0 0.00 0.38 0.00 97 1014.9
20260901073524 22 0 0.0 0.0 0.00 0.38 0.00 97 1014.9
20260901073042 22 0 0.0 0.0 0.00 0.38 0.00 97 1014.9
20260901072524 22 0 0.0 0.0 0.00 0.38 0.00 97 1015.0
20260901072024 22 0 0.0 0.0 0.00 0.38 0.00 97 1014.9
20260901071540 22 0 0.0 0.0 0.00 0.38 0.00 97 1015.0
20260901071025 22 0 0.0 1.6 0.00 0.38 0.00 97 1015.0
20260901070526 22 0 0.0 1.6 0.00 0.38 0.00 97 1015.1
20260901070044 22 0 0.0 0.0 0.00 0.38 0.00 97 1015.3
20260901065525 22 0 0.0 1.6 0.00 0.38 0.00 97 1015.3
20260901065021 22 0 0.0 1.6 0.00 0.38 0.00 97 1015.5
20260901064543 22 0 0.0 1.6 0.00 0.38 0.00 97 1015.5
20260901064022 22 0 0.0 0.0 0.00 0.38 0.00 97 1015.7
20260901063517 22 0 0.0 0.0 0.00 0.38 0.00 97 1015.8
20260901063041 22 0 0.0 0.0 0.00 0.38 0.00 97 1015.7
20260901062518 22 0 0.0 0.0 0.00 0.38 0.00 97 1015.9
20260901062025 22 0 0.0 0.0 0.00 0.38 0.00 97 1016.0
20260901061541 22 0 0.0 0.0 0.00 0.38 0.00 96 1016.2
20260901061023 22 0 0.0 0.0 0.00 0.38 0.00 96 1016.3
20260901060525 22 0 0.0 0.0 0.00 0.38 0.00 97 1016.4
20260901060043 22 0 0.0 0.0 0.00 0.38 0.00 96 1016.4
20260901055524 22 0 0.0 0.0 0.00 0.38 0.00 97 1016.5
20260901055021 22 0 0.0 1.6 0.00 0.38 0.00 97 1016.4
20260901054544 22 0 0.0 3.2 0.00 0.38 0.00 96 1016.4
20260901054020 22 0 0.0 3.2 0.00 0.38 0.00 96 1016.5
20260901053520 22 290 1.6 3.2 0.00 0.38 0.00 96 1016.6
20260901053104 22 290 0.0 3.2 0.00 0.38 0.00 97 1016.6
20260901052527 22 0 0.0 0.0 0.00 0.38 0.00 96 1016.6
20260901052023 22 0 0.0 0.0 0.00 0.38 0.00 97 1016.7
20260901051559 22 0 0.0 0.0 0.00 0.38 0.00 96 1016.7
20260901051023 22 0 0.0 0.0 0.00 0.38 0.00 96 1016.6
20260901050518 22 0 0.0 0.0 0.00 0.38 0.00 96 1016.6
20260901050042 22 0 0.0 0.0 0.00 0.38 0.00 96 1016.6
20260901045521 22 0 0.0 0.0 0.00 0.38 0.00 96 1016.7
20260901045027 22 0 0.0 0.0 0.00 0.38 0.00 96 1016.8
20260901044553 22 0 0.0 0.0 0.00 0.38 0.00 96 1016.8
20260901044025 22 0 0.0 0.0 0.00 0.38 0.00 96 1016.9
20260901043523 22 0 0.0 0.0 0.00 0.38 0.00 96 1016.9
20260901043044 22 0 0.0 0.0 0.00 0.38 0.00 96 1017.1
20260901042521 23 0 0.0 0.0 0.00 0.38 0.00 96 1017.0
20260901042020 23 0 0.0 0.0 0.00 0.38 0.00 96 1017.1
20260901041541 22 0 0.0 0.0 0.00 0.38 0.00 96 1017.1
20260901041021 23 0 0.0 0.0 0.00 0.38 0.00 96 1017.1
20260901040525 23 0 0.0 0.0 0.00 0.38 0.00 96 1017.0
20260901040108 23 0 0.0 0.0 0.00 0.38 0.00 96 1017.1
20260901035529 23 0 0.0 0.0 0.00 0.38 0.38 96 1017.1
20260901035023 23 0 0.0 0.0 0.00 0.38 0.38 96 1017.2
20260901034559 23 0 0.0 0.0 0.00 0.38 0.38 96 1017.0
20260901034022 23 0 0.0 0.0 0.00 0.38 0.38 96 1017.0
20260901033520 23 0 0.0 0.0 0.00 0.38 0.38 96 1017.0
20260901033042 23 0 0.0 0.0 0.00 0.38 0.38 96 1017.1
20260901032525 23 0 0.0 0.0 0.00 0.38 0.38 96 1017.2
20260901032025 23 0 0.0 0.0 0.00 0.38 0.38 96 1017.1
20260901031543 23 0 0.0 0.0 0.00 0.38 0.38 96 1017.1
20260901031023 23 0 0.0 0.0 0.00 0.38 0.38 96 1017.1
20260901030523 23 0 0.0 0.0 0.00 0.38 0.38 96 1017.2
20260901030042 23 0 0.0 0.0 0.00 0.38 0.38 96 1017.2
20260901025524 23 0 0.0 0.0 0.00 0.38 0.38 96 1017.3
20260901025021 23 0 0.0 0.0 0.00 0.38 0.38 96 1017.3
20260901024545 23 0 0.0 0.0 0.00 0.38 0.38 96 1017.3
20260901024028 23 0 0.0 0.0 0.00 0.38 0.38 96 1017.3
20260901023525 23 0 0.0 0.0 0.00 0.38 0.38 96 1017.2
20260901023105 23 0 0.0 0.0 0.00 0.38 0.38 96 1017.2
20260901022524 23 0 0.0 0.0 0.00 0.38 0.38 96 1017.1
20260901022023 23 0 0.0 0.0 0.00 0.38 0.38 96 1017.0
20260901021552 23 0 0.0 0.0 0.00 0.38 0.38 96 1017.0
20260901021026 23 0 0.0 0.0 0.00 0.38 0.38 95 1017.0
20260901020525 23 0 0.0 4.8 0.00 0.38 0.38 95 1016.8
20260901020050 23 0 0.0 4.8 0.00 0.38 0.38 95 1016.7
20260901015526 23 290 1.6 4.8 0.00 0.38 0.38 95 1016.7
20260901015026 23 36 0.0 1.6 0.00 0.38 0.38 95 1016.6
20260901014554 23 0 0.0 0.0 0.00 0.38 0.38 95 1016.6
20260901014024 23 0 0.0 0.0 0.00 0.38 0.38 95 1016.4
20260901013524 23 0 0.0 0.0 0.00 0.38 0.38 95 1016.3
20260901013045 23 0 0.0 0.0 0.00 0.38 0.38 95 1016.3
20260901012525 23 0 0.0 0.0 0.00 0.38 0.38 95 1016.3
20260901012025 23 0 0.0 0.0 0.00 0.38 0.38 95 1016.1
20260901011549 23 0 0.0 0.0 0.00 0.38 0.38 95 1016.1
20260901011025 23 0 0.0 0.0 0.00 0.38 0.38 95 1016.0
20260901010526 23 0 0.0 0.0 0.00 0.38 0.38 95 1016.0
20260901010045 23 0 0.0 4.8 0.00 0.38 0.38 95 1016.1
20260901005530 23 0 0.0 4.8 0.00 0.38 0.38 94 1015.9
20260901005028 23 36 1.6 4.8 0.00 0.38 0.38 94 1015.9
20260901004558 23 90 1.6 4.8 0.00 0.38 0.38 94 1015.8
20260901004025 24 90 0.0 1.6 0.00 0.38 0.38 94 1015.8
20260901003526 24 0 0.0 0.0 0.00 0.38 0.38 94 1015.8
20260901003044 23 0 0.0 0.0 0.00 0.38 0.38 94 1015.8
20260901002526 23 0 0.0 0.0 0.00 0.38 0.38 94 1015.8
20260901002024 23 0 0.0 0.0 0.00 0.38 0.38 94 1015.8
20260901001542 23 0 0.0 0.0 0.00 0.38 0.38 94 1015.9
20260901001026 24 0 0.0 0.0 0.00 0.38 0.38 93 1015.9
20260901000525 24 0 0.0 4.8 0.00 0.38 0.38 93 1015.7
20260901000049 24 0 0.0 6.4 0.00 0.38 0.38 93 1015.6
20260831235525 24 90 1.6 6.4 0.00 0.38 0.38 93 1015.6
20260831235026 24 79 1.6 6.4 0.00 0.38 0.38 93 1015.5
20260831234545 24 0 0.0 3.2 0.00 0.38 0.38 93 1015.6
20260831234024 25 86 0.0 3.2 0.00 0.38 0.38 92 1015.6
20260831233524 25 0 0.0 4.8 0.00 0.38 0.38 93 1015.6
20260831233042 25 90 0.0 6.4 0.00 0.38 0.38 93 1015.6
20260831232535 24 110 1.6 6.4 0.00 0.38 0.38 93 1015.7
20260831232025 24 92 3.2 6.4 0.00 0.38 0.38 92 1015.7
20260831231544 25 118 3.2 6.4 0.00 0.38 0.38 92 1015.7